Meteo Giornale » Osservazioni meteo Messico » Mexico City-Licenci

ore: 18:41 - Osservazioni Meteo Mexico City-Licenci
Lat. 19° 26' N Lon. 99° 6' W Alt. 2238 metri s.l.m.

coperto_pioggia America/Mexico_City

16 °C

Pioggia Debole

Temp. 24 Ore

14 °C

20 °C

Nord-Ovest

9.3 Km/h

Dew point 13 °C

Umidità 82 %

Visibilità  8 Km

Il sole sorge alle ore 06:57

Il sole tramonta alle ore 20:18

Data e Ora Cielo e Fenomeni T °C DP °C Um. % Pres. hPa Vis. km Vento km/h
Oggi h: 18:41 coperto_pioggia Pioggia Debole 16 13 82 1024 8 NO 9.3
Oggi h: 17:44 coperto_pioggia Pioggia Debole 17 14 82 1024 8 NO 11.1
Oggi h: 16:44 coperto_pioggia Pioggia Debole 18 14 77 1024 10 O 13
Oggi h: 15:46 coperto_pioggia Pioggia Debole 18 13 72 1024 11 S 9.3
Oggi h: 15:44 coperto_pioggia Pioggia Debole 18 13 72 1024 11 SE 14.8
Oggi h: 15:01 coperto Coperto 17 13 77 1024 11 E/SE 11.1
Oggi h: 14:43 coperto_pioggia Pioggia Debole 17 13 77 1024 10 S 9.3
Oggi h: 14:38 coperto_pioggia Pioggia Debole 16 13 82 1025 10 S 7.4
Oggi h: 14:13 nuvoloso_temporali Temporale con Pioggia Debole 14 13 93 1025 6 S 16.7
Oggi h: 13:44 nuvoloso_temporali Temporale con Pioggia 15 13 87 1025 5 SO 24
Oggi h: 13:37 coperto_pioggia Pioggia 16 14 87 1025 8 SO 27.8
Oggi h: 13:30 coperto_pioggia Pioggia 18 13 72 1025 10 SO 22.2
Oggi h: 12:48 molto_nuvoloso Molto Nuvoloso 20 11 56 1024 10 E/NE 9.3
Oggi h: 11:46 molto_nuvoloso Molto Nuvoloso 20 11 56 1025 10 E/SE 13
Oggi h: 10:49 molto_nuvoloso Molto Nuvoloso 19 11 59 1025 10 E 9.3
Oggi h: 09:47 molto_nuvoloso Molto Nuvoloso 18 12 67 1025 10 E/SE 11.1
Oggi h: 07:46 coperto Coperto 15 11 76 1025 10 E/SE 13
Oggi h: 06:51 coperto Coperto 16 12 77 1024 10 E 9.3
Oggi h: 05:43 coperto Coperto 16 12 77 1024 19 N 0
Oggi h: 04:45 coperto Coperto 16 12 77 1024 19 N 0
Oggi h: 03:47 coperto Coperto 16 12 77 1024 19 N 5.5
Oggi h: 01:40 molto_nuvoloso Molto Nuvoloso 17 11 67 1025 19 SE 14.8
Oggi h: 00:42 molto_nuvoloso Molto Nuvoloso 17 11 67 1025 19 S/SE 14.8
Ieri h: 23:41 molto_nuvoloso Molto Nuvoloso 17 11 67 1025 19 E/SE 16.7
Ieri h: 22:43 molto_nuvoloso Molto Nuvoloso 17 11 67 1025 19 SE 16.7
Ieri h: 21:44 molto_nuvoloso Molto Nuvoloso 18 11 63 1024 10 SE 25.9
Ieri h: 20:45 coperto Coperto 18 12 67 1023 10 E/SE 14.8
Ieri h: 19:43 coperto Coperto 19 12 63 1022 13 SE 14.8